Regional Weather Roundup
Issued by NWS

Home | Current Version | Previous Version | Graphics & Text | Print | Product List | Glossary On
Versions: 1 2 3 4 5 6 7 8 9 10 11 12 13 14 15 16 17 18 19 20 21 22 23 24 25 26 27 28 29 30 31 32 33 34 35 36 37 38 39 40 41 42 43 44 45 46 47 48 49 50
000
ASUS44 KMEG 020010
RWRTN
TENNESSEE HOURLY STATE WEATHER ROUNDUP
NATIONAL WEATHER SERVICE MEMPHIS TN
700 PM CDT TUE SEP 01 2015

TNZ002-004-019-021-049-052-054-088>092-020100-
WEST TENNESSEE

CITY           SKY/WX    TMP DP  RH WIND       PRES   REMARKS
MEMPHIS INTL   CLOUDY    87  68  52 E8        30.05S HX  90
NWS MEMPHIS      N/A     84 N/A N/A MISG        N/A
JACKSON        CLOUDY    80  72  76 CALM      30.07S
DYERSBURG      MOCLDY    82  72  69 CALM      30.07S
UNION CITY     CLEAR     84  72  65 CALM      30.06S
PARIS          CLEAR     82  68  61 CALM      30.09S
LEXINGTON      CLEAR     79  73  83 CALM      30.07S
$$

TNZ008-025-027-028-033-062-065-066-020100-
NORTH MIDDLE TENNESSEE

CITY           SKY/WX    TMP DP  RH WIND       PRES   REMARKS
NASHVILLE      MOCLDY    85  64  49 NE6       30.09R
CLARKSVILLE    MOCLDY    85  67  54 NW5       30.08R
SMYRNA         PTCLDY    85  68  56 SE5       30.09R
COOKEVILLE     CLEAR     81  72  74 CALM      30.10S
CROSSVILLE     MOCLDY    75  69  81 CALM      30.15S
$$

TNZ061-075-076-078-094-096-097-020100-
SOUTH MIDDLE TENNESSEE

CITY           SKY/WX    TMP DP  RH WIND       PRES   REMARKS
TULLAHOMA        N/A     79  70  73 CALM      30.12S
WINCHESTER     CLEAR     79  72  78 CALM      30.11R
MCMINNVILLE    CLEAR     81  73  78 CALM      30.11R
COLUMBIA       CLEAR     82  72  69 S3        30.08S
SHELBYVILLE    CLEAR     82  73  74 CALM      30.11R
$$

TNZ017-018-042-046-047-020100-
NORTHEAST TENNESSEE

CITY           SKY/WX    TMP DP  RH WIND       PRES   REMARKS
TRI CITIES     MOCLDY    78  67  68 N3        30.12S
ELIZABETHTON   MOCLDY    72  66  83 CALM      30.13S
$$

TNZ012-013-036-069-073-074-020100-
CENTRAL EAST TENNESSEE

CITY           SKY/WX    TMP DP  RH WIND       PRES   REMARKS
KNOXVILLE      MOCLDY    83  65  54 CALM      30.08F
OAK RIDGE      PTCLDY    82  68  62 CALM      30.10S
GATLINBURG     PTCLDY    84  63  48 CALM      30.08F
MORRISTOWN     CLEAR     82  68  61 CALM      30.12S
$$

TNZ083-085-099-020100-
SOUTHEAST TENNESSEE

CITY           SKY/WX    TMP DP  RH WIND       PRES   REMARKS
CHATTANOOGA    PTCLDY    85  67  54 NE5       30.08R
$$

SKY/WX REPORTED AS FAIR MEANS FEW OR NO CLOUDS BELOW
12 THOUSAND FEET.




USA.gov is the U.S. government's official web portal to all federal, state and local government web resources and services.